This is the latest recevied weather packets stored in our database for station/object KC3BBT-13. If no packets are shown the sender has not sent any weather packets the latest 10 day(s).
| Time | Temp. | Humidity | Pressure | Rain* | Wind** | Luminosity | Snow |
|---|---|---|---|---|---|---|---|
| 1778103861 | 21.11° C | 75% | 1008.8 hPa | 0 mm | - | - | - |
| 1778103102 | 21.67° C | 74% | 1008.8 hPa | 0 mm | - | - | - |
| 1778102277 | 21.67° C | 74% | 1008.7 hPa | 0 mm | - | - | - |
| 1778101466 | 21.11° C | 75% | 1008.6 hPa | 0 mm | - | - | - |
| 1778100657 | 21.11° C | 75% | 1008.5 hPa | 0 mm | - | - | - |
| 1778100023 | 21.11° C | 75% | 1008.3 hPa | 0 mm | - | - | - |
| 1778099807 | 21.11° C | 75% | 1008.3 hPa | 0 mm | - | - | - |
| 1778098941 | 20.56° C | 75% | 1008.6 hPa | 0 mm | - | - | - |
| 1778098061 | 21.11° C | 75% | 1008.7 hPa | 0 mm | - | - | - |
| 1778097262 | 21.11° C | 75% | 1008.6 hPa | 0 mm | - | - | - |
| 1778096615 | 21.11° C | 74% | 1008.6 hPa | 0 mm | - | - | - |
| 1778096426 | 21.11° C | 74% | 1008.6 hPa | 0 mm | - | - | - |
| 1778095576 | 21.11° C | 75% | 1008.6 hPa | 0 mm | - | - | - |
| 1778094691 | 20.56° C | 76% | 1008.8 hPa | 0 mm | - | - | - |
| 1778093961 | 20° C | 78% | 1008.8 hPa | 0 mm | - | - | - |
| 1778093161 | 19.44° C | 79% | 1008.9 hPa | 0 mm | - | - | - |
| 1778092421 | 19.44° C | 78% | 1009.1 hPa | 0 mm | - | - | - |
| 1778091622 | 20° C | 79% | 1009.3 hPa | 0 mm | - | - | - |
| 1778090746 | 19.44° C | 82% | 1009.4 hPa | 0 mm | - | - | - |
| 1778090126 | 18.89° C | 83% | 1009.5 hPa | 0 mm | - | - | - |
| 1778089996 | 18.89° C | 83% | 1009.5 hPa | 0 mm | - | - | - |
| 1778089409 | 18.33° C | 85% | 1009.6 hPa | 0 mm | - | - | - |
| 1778089136 | 18.33° C | 85% | 1009.6 hPa | 0 mm | - | - | - |
| 1778088611 | 17.78° C | 86% | 1009.6 hPa | 0 mm | - | - | - |
| 1778088271 | 17.78° C | 86% | 1009.6 hPa | 0 mm | - | - | - |
* Rain latest hour (hover to see other rain measurements)
** Current wind speed in m/s (hover to see current wind gust speed)